CST,Max TemperatureF,Mean TemperatureF,Min TemperatureF,Max Dew PointF,MeanDew PointF,Min DewpointF,Max Humidity, Mean Humidity, Min Humidity, Max Sea Level PressureIn, Mean Sea Level PressureIn, Min Sea Level PressureIn, Max VisibilityMiles, Mean VisibilityMiles, Min VisibilityMiles, Max Wind SpeedMPH, Mean Wind SpeedMPH, Max Gust SpeedMPH,PrecipitationIn, CloudCover, Events, WindDirDegrees
2011-12-1,45,36,27,32,27,21,96,77,52,30.33,30.26,30.20,10,9,3,10,4,,0.00,4,Snow,250
2011-12-2,39,34,30,32,29,27,93,83,65,30.49,30.40,30.31,10,8,2,16,7,,0.00,5,Snow,173
2011-12-3,48,42,37,43,39,33,92,84,71,30.31,30.15,29.91,10,6,2,24,12,33,0.54,7,Rain,167
2011-12-4,51,42,34,47,38,30,100,87,77,30.28,30.03,29.87,10,8,2,23,15,33,0.01,8,Rain,261
2011-12-5,37,35,33,34,32,30,93,87,76,30.32,30.28,30.24,10,8,5,15,10,,0.00,8,Rain,353
2011-12-6,34,31,28,30,24,21,92,76,61,30.31,30.25,30.16,10,10,10,15,10,22,0.00,7,,15
2011-12-7,33,28,24,25,21,17,88,76,59,30.14,30.09,30.01,10,9,7,17,8,23,0.00,4,,262
2011-12-8,34,30,26,27,24,21,85,80,70,30.26,30.21,30.15,10,8,6,10,5,,0.00,7,,251
2011-12-9,28,22,15,27,17,7,93,76,53,30.48,30.31,30.19,10,7,2,18,11,,0.00,4,Snow,289
2011-12-10,26,18,9,17,9,4,84,66,46,30.58,30.50,30.43,10,10,10,13,7,,0.00,2,,224
2011-12-11,43,32,21,31,24,17,85,76,60,30.46,30.41,30.35,10,10,9,15,8,,0.00,0,,176
2011-12-12,46,34,23,29,25,20,88,71,50,30.43,30.39,30.35,10,9,6,10,5,,0.00,3,,157
2011-12-13,44,40,36,39,35,28,97,82,65,30.41,30.33,30.23,10,6,2,7,3,,0.15,8,Rain,153
2011-12-14,54,46,39,52,44,37,97,93,87,30.22,29.96,29.68,8,4,1,18,11,24,1.45,8,Rain-Thunderstorm,175
2011-12-15,55,44,32,54,38,24,94,81,70,30.28,29.85,29.64,10,9,2,30,18,39,0.10,8,Rain,266
2011-12-16,32,28,24,25,22,18,85,77,66,30.43,30.37,30.28,10,10,10,14,8,,0.00,1,,298
2011-12-17,32,25,18,27,25,16,96,89,82,30.36,30.27,30.20,10,4,0,8,5,,0.07,7,Fog-Snow,207
2011-12-18,43,29,15,34,22,14,93,85,71,30.25,30.16,29.91,19,5,0,17,3,23,0.00,2,Fog,198
2011-12-19,48,42,37,40,35,30,83,75,71,30.21,30.04,29.87,10,10,8,13,10,18,0.00,6,,322
2011-12-20,39,36,34,36,31,27,93,80,67,30.19,30.00,29.76,10,8,1,10,8,,0.01,7,,64
2011-12-21,39,37,35,38,36,30,100,91,81,29.96,29.78,29.67,10,5,0,15,6,,0.01,8,Fog-Rain,265
2011-12-22,39,34,30,35,30,22,100,89,72,30.28,30.10,29.97,10,4,0,16,5,22,0.01,7,Fog,356
2011-12-23,30,26,21,22,20,16,82,75,67,30.39,30.30,30.21,10,10,6,17,9,,0.00,3,Snow,247
2011-12-24,37,28,19,28,24,17,89,78,65,30.35,30.27,30.18,10,9,6,16,7,21,0.00,0,,204
2011-12-25,43,34,26,30,27,22,88,74,58,30.34,30.20,30.09,10,10,10,21,12,28,0.00,0,,264
2011-12-26,43,32,21,34,27,18,93,79,58,30.34,30.11,29.84,10,9,5,18,6,24,0.07,3,Rain,194
2011-12-27,39,33,26,34,29,18,93,82,67,30.03,29.76,29.60,10,8,3,23,11,33,0.01,7,Rain,286
2011-12-28,30,24,19,27,19,14,88,74,61,30.11,30.02,29.83,10,10,8,12,7,,0.00,4,,165
2011-12-29,46,38,30,35,31,27,89,80,63,29.80,29.66,29.53,10,9,7,18,8,30,0.01,2,Rain,210
2011-12-30,45,40,34,43,37,31,100,90,85,29.84,29.60,29.42,10,5,1,16,8,22,0.23,8,Rain,36
2011-12-31,39,34,28,36,32,27,96,90,86,30.05,29.90,29.65,10,5,0,21,10,30,0.01,6,Fog,179